Location: Newark
(45.9456°N, 15.4064°E)
Time: 02:17:47
(UTC+00:00)

SR - Pass Details

Date: 31 January 2020
Orbit: 575 x 881 km, 66.7° (Epoch: 19 February)

Event Time Altitude Azimuth Distance (km) Brightness Sun altitude
Rises 20:45:26 0° 237° (WSW) 3,437 - -48.3°
Reaches altitude 10° 20:48:04 10° 245° (WSW) 2,521 - -48.7°
Maximum altitude 20:53:34 39° 314° (NW) 1,291 - -49.5°
Drops below altitude 10° 20:59:05 10° 22° (NNE) 2,525 - -50.3°
Sets 21:01:44 0° 30° (NNE) 3,442 - -50.7°
